[[{"header":{"parameterUnit":"m.s-1","parameterCategory":1,"la1":30.2991,"la2":30.254,"lo1":-89.0895,"lo2":-89.0444,"dy":0.0017,"dx":0.0017,"nx":28,"ny":28,"refTime":"2025-06-20T21:00:00:Z","depth":0,"parameterNumber":2,"parameterNumberName":"U-component_of_WINDS"},"data":[0,0,0,0,0,0,0,0,0,0,0,0,0,0,0,0,0,0,0,0,0,0,0,0,0,0,0,0,0,0,0,0,0,0,0,0,0,0,0,0,0,0,0,0,0,0,0,0,0,0,0,0,0,0,0,0,0,0,1.29,1.2901,0,1.2952,1.2952,1.2953,1.2935,1.2934,1.2933,1.2932,1.2988,1.299,1.2993,0,0,0,0,0,0,0,0,0,0,0,0,0,1.2789,1.2791,1.29,1.2901,1.2901,1.2952,1.2952,1.2953,1.2935,1.2934,1.2933,1.2931,1.2987,1.299,1.2993,0,0,0,0,0,0,0,0,0,0,0,0,0,1.2839,1.2792,1.29,1.2899,1.2899,1.2951,1.2952,1.2953,1.2936,1.2934,1.2932,1.2931,1.2986,1.299,1.2993,1.3051,0,0,1.3005,1.3007,0,0,0,0,0,0,0,0,1.2836,1.2843,1.2898,1.2899,1.2899,1.2935,1.2934,1.2986,1.2936,1.2922,1.2932,1.293,1.2972,1.2977,1.299,1.3054,1.3056,1.3005,1.3008,1.3009,1.3011,0,0,0,0,0,0,0,1.2833,1.2841,1.2921,1.2899,1.29,1.2896,1.2901,1.2944,1.2956,1.2923,1.2922,1.2928,1.2972,1.2987,1.2991,1.3057,1.3005,1.3009,1.3011,1.3013,1.3171,1.3173,0,0,0,0,0,0,1.2829,1.2838,1.2919,1.2922,1.2863,1.29,1.2905,1.2925,1.2955,1.2958,1.2929,1.2927,1.2981,1.2987,1.2993,1.3062,1.3009,1.3013,1.3015,1.3169,1.3171,1.3173,0,0,0,0,0,0,1.2826,1.2836,1.2917,1.288,1.289,1.2903,1.2926,1.2927,1.2942,1.296,1.2963,1.2942,1.298,1.2988,1.3037,1.3064,1.3015,1.3018,1.3167,1.317,1.3172,1.3202,0,0,0,0,0,0,1.2823,1.2835,1.2856,1.288,1.2892,1.2958,1.2928,1.293,1.2948,1.2946,1.2973,1.2975,1.2979,1.3031,1.3041,1.3069,1.3021,1.3164,1.3168,1.3171,1.3198,1.3205,1.3211,0,0,0,0,0,1.2819,1.2863,1.2858,1.2867,1.2918,1.296,1.2967,1.2969,1.2951,1.2972,1.2984,1.2975,1.306,1.3036,1.3047,1.3076,1.3163,1.3167,1.3171,1.3195,1.3204,1.3211,0,0,0,0,0,0,1.2843,1.2866,1.286,1.2913,1.2935,1.2957,1.2984,1.2978,1.3006,1.3002,1.3005,1.3011,1.3061,1.3074,1.3047,1.3134,1.3109,1.3115,1.3123,1.3132,1.3138,1.3133,1.3024,0,0,0,0,0,1.2854,1.2885,1.2904,1.2949,1.296,1.2971,1.2989,1.2989,1.3012,1.3021,1.3036,1.3059,1.3091,1.3113,1.3143,1.3201,1.3206,1.3226,1.3233,1.3238,1.3243,1.3274,1.3283,1.3188,1.3187,1.3187,0,0,1.2878,1.2895,1.2914,1.2955,1.2971,1.3004,1.2978,1.3014,1.3038,1.3027,1.3073,1.3085,1.3112,1.3165,1.3189,1.3177,1.3271,1.3243,1.3247,1.325,1.3279,1.3288,1.3296,1.319,1.319,1.3189,0,0,1.2938,1.2954,1.2993,1.301,1.3035,1.3042,1.3051,1.3075,1.3082,1.3129,1.312,1.315,1.3205,1.3224,1.3241,1.3309,1.3301,1.3319,1.3352,1.3382,1.339,1.3396,1.342,1.3428,1.3325,1.3325,1.3325,0,1.2965,1.3012,1.3014,1.305,1.3068,1.3058,1.3098,1.3115,1.315,1.3163,1.3148,1.3217,1.3234,1.3292,1.3308,1.3322,1.3333,1.3315,1.3388,1.3395,1.3401,1.3424,1.3433,1.3327,1.3327,1.3326,1.3326,0,1.3044,1.3077,1.3106,1.3138,1.316,1.3197,1.3205,1.3227,1.3226,1.3235,1.3282,1.3303,1.3337,1.3351,1.335,1.3408,1.34,1.3387,1.3362,1.3412,1.3433,1.3442,1.3329,1.3329,1.3328,1.3328,0,0,1.3118,1.3151,1.3162,1.3176,1.3204,1.323,1.3268,1.3301,1.3319,1.3344,1.3376,1.3423,1.3412,1.3431,1.3432,1.3459,1.3511,1.3443,1.3444,1.3454,1.3575,1.3584,1.3594,1.3506,1.3508,1.3509,1.3573,0,1.3179,1.3245,1.3248,1.3307,1.3338,1.333,1.3363,1.3385,1.3394,1.3422,1.3433,1.3466,1.3449,1.346,1.3486,1.3499,1.3535,1.3495,1.3536,1.3537,1.3528,1.3605,1.3614,1.3673,1.3581,1.3583,1.3584,0,1.3259,1.3285,1.3347,1.3371,1.3384,1.3413,1.3444,1.3471,1.3495,1.35,1.3522,1.352,1.3559,1.3534,1.3588,1.3561,1.3578,1.3587,1.359,1.3592,1.3563,1.3609,1.3692,1.37,1.3597,1.3596,1.3595,0,1.3306,1.3357,1.3401,1.3414,1.3442,1.3463,1.3476,1.3499,1.3518,1.3545,1.3558,1.359,1.3607,1.3632,1.3639,1.3619,1.3694,1.3668,1.3699,1.3699,1.3713,1.3712,1.3799,1.3727,1.3727,1.3727,1.3727,0,1.3373,1.3411,1.3422,1.3449,1.3492,1.3496,1.3539,1.3551,1.3571,1.3601,1.3597,1.3625,1.3632,1.3662,1.3668,1.3712,1.3721,1.3726,1.3727,1.3725,1.3725,1.3736,1.3731,1.3729,1.3729,1.3728,1.3728,0,1.3432,1.3441,1.3488,1.3511,1.3518,1.3549,1.3569,1.3595,1.3605,1.3642,1.3651,1.3666,1.3701,1.371,1.3753,1.3757,1.3808,1.3806,1.38,1.3799,1.3829,1.3825,1.3925,1.3938,1.3858,1.3859,1.386,0,1.3473,1.3502,1.3529,1.3548,1.3562,1.3593,1.3613,1.3618,1.3639,1.3669,1.3692,1.3726,1.3754,1.381,1.3825,1.3857,1.3855,1.3888,1.386,1.3857,1.3854,1.3852,1.3854,1.3892,1.3893,1.3894,1.3894,0,1.3545,1.3548,1.3576,1.3607,1.363,1.3654,1.3678,1.3694,1.3703,1.3727,1.3762,1.3783,1.3826,1.386,1.3893,1.3907,1.3902,1.3903,1.3912,1.391,1.3905,1.3907,1.3813,1.3901,1.39,1.39,1.3899,1.3899,1.3596,1.3621,1.3644,1.3676,1.3694,1.3716,1.3741,1.3754,1.3783,1.3817,1.382,1.3858,1.3882,1.3925,1.3941,1.3972,1.3962,1.3975,1.3978,1.398,1.3982,1.3901,1.3978,1.3978,1.3978,1.3978,1.3977,0,1.3667,1.3681,1.371,1.3743,1.3768,1.3761,1.3787,1.3808,1.3842,1.3864,1.3891,1.3932,1.3965,1.3983,1.4016,1.4037,1.4036,1.4045,1.4043,1.4046,1.399,1.3978,1.4046,1.4046,1.4046,1.4046,1.4046,1.4046,1.3706,1.3749,1.3755,1.3807,1.3821,1.3858,1.3873,1.3894,1.3911,1.3957,1.3984,1.3995,1.4016,1.4051,1.4081,1.4086,1.4097,1.4108,1.4111,1.4058,1.405,1.4044,1.4033,1.4111,1.4111,1.4165,1.4166,1.4166]},{"header":{"parameterUnit":"m.s-1","parameterCategory":1,"la1":30.2991,"la2":30.254,"lo1":-89.0895,"lo2":-89.0444,"dy":0.0017,"dx":0.0017,"nx":28,"ny":28,"refTime":"2025-06-20T21:00:00:Z","depth":0,"parameterNumber":3,"parameterNumberName":"V-component_of_WINDS"},"data":[0,0,0,0,0,0,0,0,0,0,0,0,0,0,0,0,0,0,0,0,0,0,0,0,0,0,0,0,0,0,0,0,0,0,0,0,0,0,0,0,0,0,0,0,0,0,0,0,0,0,0,0,0,0,0,0,0,0,3.3043,3.3043,0,3.3058,3.3058,3.3058,3.3091,3.3092,3.3093,3.3093,3.3104,3.3104,3.3103,0,0,0,0,0,0,0,0,0,0,0,0,0,3.3037,3.3037,3.3043,3.3043,3.3044,3.3058,3.3058,3.3058,3.3091,3.3092,3.3093,3.3094,3.3104,3.3104,3.3103,0,0,0,0,0,0,0,0,0,0,0,0,0,3.3044,3.3037,3.3043,3.3062,3.3064,3.3058,3.3058,3.3058,3.3091,3.3092,3.3093,3.3094,3.3104,3.3104,3.3103,3.3079,0,0,3.3101,3.3101,0,0,0,0,0,0,0,0,3.3044,3.3045,3.3059,3.3061,3.3063,3.3074,3.306,3.3065,3.3091,3.3081,3.3093,3.3095,3.3093,3.3093,3.3094,3.3079,3.308,3.3101,3.3101,3.3101,3.3101,0,0,0,0,0,0,0,3.3043,3.3044,3.3049,3.3059,3.3061,3.3067,3.307,3.3061,3.308,3.3082,3.3084,3.3086,3.3094,3.3094,3.3094,3.308,3.3101,3.3101,3.3101,3.31,3.3042,3.3041,0,0,0,0,0,0,3.3041,3.3043,3.3048,3.3049,3.3056,3.3067,3.3069,3.3069,3.3081,3.3084,3.3085,3.3087,3.3095,3.3095,3.3095,3.3064,3.3101,3.31,3.31,3.3044,3.3042,3.3041,0,0,0,0,0,0,3.3041,3.3041,3.3048,3.3047,3.3048,3.3066,3.3065,3.3069,3.3069,3.3083,3.3086,3.3082,3.3095,3.3095,3.3082,3.3065,3.31,3.31,3.3045,3.3043,3.3041,3.3005,0,0,0,0,0,0,3.304,3.3041,3.3034,3.3047,3.3048,3.3037,3.3065,3.3068,3.3069,3.3072,3.3081,3.3084,3.3096,3.3083,3.3081,3.3065,3.3099,3.3047,3.3044,3.3042,3.3008,3.3003,3.2998,0,0,0,0,0,3.304,3.3023,3.3033,3.3034,3.304,3.3036,3.3037,3.3053,3.3067,3.3059,3.3067,3.3083,3.3068,3.3081,3.308,3.3063,3.3048,3.3045,3.3042,3.301,3.3004,3.2998,0,0,0,0,0,0,3.3006,3.3025,3.3037,3.3024,3.3028,3.3042,3.3032,3.3046,3.3045,3.3048,3.3067,3.3069,3.3052,3.3056,3.3071,3.3038,3.306,3.3057,3.3036,3.303,3.3025,3.3023,3.3099,0,0,0,0,0,3.2998,3.2995,3.301,3.2997,3.2999,3.3015,3.3014,3.3026,3.303,3.3032,3.304,3.3042,3.3037,3.3034,3.3031,3.3009,3.3009,3.2997,3.2991,3.2987,3.2984,3.2969,3.2962,3.3032,3.3032,3.3032,0,0,3.2979,3.2989,3.2986,3.299,3.2995,3.2989,3.3016,3.301,3.3004,3.3031,3.3018,3.3023,3.3027,3.3009,3.3001,3.3012,3.2965,3.2984,3.298,3.2979,3.2965,3.2959,3.2953,3.303,3.303,3.3031,0,0,3.2942,3.295,3.2939,3.2943,3.295,3.296,3.2957,3.2968,3.2973,3.2961,3.2979,3.2973,3.2965,3.2966,3.2966,3.2925,3.2939,3.2923,3.2896,3.2881,3.2876,3.2871,3.2854,3.2847,3.292,3.292,3.292,0,3.2918,3.2912,3.2931,3.2922,3.2922,3.2946,3.2932,3.2935,3.294,3.2938,3.2951,3.294,3.2944,3.2924,3.2914,3.2914,3.2909,3.2922,3.2875,3.2871,3.2866,3.285,3.2844,3.2918,3.2918,3.2919,3.2919,0,3.288,3.2875,3.2864,3.2869,3.2868,3.2857,3.2871,3.2867,3.2879,3.2886,3.2872,3.2878,3.2874,3.2871,3.2882,3.2851,3.2857,3.2872,3.2894,3.2857,3.2842,3.2836,3.2915,3.2916,3.2917,3.2917,0,0,3.2823,3.2837,3.2832,3.2833,3.2842,3.2837,3.2825,3.2823,3.2818,3.282,3.2808,3.28,3.2813,3.2812,3.2823,3.281,3.2774,3.2827,3.2827,3.2814,3.2737,3.2724,3.2717,3.2783,3.2782,3.2781,3.2735,0,3.2786,3.2769,3.2784,3.2763,3.2757,3.2778,3.2767,3.277,3.2776,3.277,3.2776,3.2769,3.2788,3.2787,3.2776,3.2781,3.2758,3.2785,3.277,3.2769,3.2767,3.2709,3.2697,3.2653,3.273,3.2729,3.2728,0,3.2742,3.2742,3.272,3.2727,3.2725,3.2715,3.2712,3.2707,3.2709,3.2714,3.2711,3.2725,3.271,3.2732,3.2711,3.2729,3.2723,3.2725,3.2723,3.2721,3.2746,3.2703,3.264,3.2633,3.272,3.272,3.2721,0,3.2699,3.2694,3.2679,3.268,3.2688,3.268,3.2683,3.2686,3.2682,3.2679,3.2676,3.2671,3.2668,3.2662,3.2672,3.2688,3.2648,3.2672,3.2649,3.2649,3.2639,3.2639,3.2572,3.2639,3.2639,3.2639,3.2639,0,3.2656,3.2641,3.266,3.2651,3.2633,3.265,3.2631,3.2636,3.2638,3.2628,3.2645,3.2635,3.265,3.264,3.2648,3.2627,3.2626,3.2627,3.2629,3.2625,3.2624,3.262,3.2623,3.2637,3.2638,3.2638,3.2638,0,3.2605,3.2618,3.2603,3.2611,3.2613,3.2599,3.2606,3.2596,3.2603,3.2589,3.2587,3.2597,3.2586,3.2596,3.2585,3.259,3.2561,3.2569,3.2561,3.2562,3.2538,3.2539,3.2464,3.2454,3.253,3.2529,3.2528,0,3.2576,3.2565,3.2572,3.2567,3.2569,3.2561,3.2557,3.2572,3.2566,3.2566,3.2555,3.2546,3.2539,3.252,3.2524,3.2515,3.2521,3.2495,3.2519,3.2514,3.2517,3.2517,3.2514,3.2489,3.2489,3.2488,3.2487,0,3.2522,3.2528,3.2523,3.2519,3.2514,3.2511,3.2509,3.2504,3.2518,3.2511,3.25,3.2495,3.2483,3.2472,3.2465,3.2465,3.2476,3.248,3.2473,3.2468,3.2463,3.2462,3.2545,3.2481,3.2482,3.2482,3.2482,3.2483,3.2479,3.2469,3.2472,3.2464,3.2465,3.2462,3.2452,3.2458,3.245,3.2442,3.2451,3.2436,3.2434,3.2425,3.2423,3.241,3.2421,3.2413,3.241,3.2407,3.2402,3.2466,3.2409,3.2409,3.241,3.241,3.241,0,3.2424,3.2426,3.2419,3.2416,3.2409,3.2423,3.2421,3.2414,3.2402,3.24,3.2392,3.2378,3.2367,3.237,3.2359,3.2347,3.2352,3.2344,3.2344,3.2343,3.2395,3.2401,3.234,3.234,3.234,3.234,3.234,3.234,3.2394,3.2377,3.2382,3.2364,3.2366,3.2353,3.235,3.2346,3.2345,3.2328,3.2319,3.2322,3.2321,3.2309,3.2298,3.2299,3.2293,3.2282,3.2284,3.2333,3.234,3.2346,3.2351,3.2281,3.2281,3.2232,3.2232,3.2232]}]]